Time,TemperatureF,DewpointF,PressureIn,WindDirection,WindDirectionDegrees,WindSpeedMPH,WindSpeedGustMPH,Humidity,HourlyPrecipIn,Conditions,Clouds,dailyrainin,SoftwareType,DateUTC
2013-08-29 07:51:00,67.1,46.4,29.97,ESE,117,7.2,10.1,47,0.00,,,0.00,WUHU216WMR968SP,2013-08-29 11:51:00,
2013-08-29 07:56:00,67.1,46.4,30.00,SE,125,7.2,10.1,46,0.00,,,0.00,WUHU216WMR968SP,2013-08-29 11:56:00,
2013-08-29 08:01:00,67.5,46.4,30.00,SE,134,6.7,10.5,46,0.00,,,0.00,WUHU216WMR968SP,2013-08-29 12:01:00,
2013-08-29 08:06:00,67.6,46.4,30.00,SSE,166,6.3,10.5,45,0.00,,,0.00,WUHU216WMR968SP,2013-08-29 12:06:00,
2013-08-29 08:11:00,67.6,46.4,30.00,NE,36,5.8,10.1,45,0.00,,,0.00,WUHU216WMR968SP,2013-08-29 12:11:00,
2013-08-29 08:16:00,67.5,44.6,30.00,ESE,112,7.2,10.1,44,0.00,,,0.00,WUHU216WMR968SP,2013-08-29 12:16:00,
2013-08-29 08:21:00,67.5,44.6,30.00,ESE,109,5.8,10.1,44,0.00,,,0.00,WUHU216WMR968SP,2013-08-29 12:21:00,
2013-08-29 08:26:00,67.3,44.6,30.00,ESE,108,4.9,8.7,44,0.00,,,0.00,WUHU216WMR968SP,2013-08-29 12:26:00,
2013-08-29 08:31:00,67.3,44.6,30.00,ESE,120,7.2,10.1,44,0.00,,,0.00,WUHU216WMR968SP,2013-08-29 12:31:00,
2013-08-29 08:36:00,67.3,44.6,30.00,SE,128,5.4,10.1,44,0.00,,,0.00,WUHU216WMR968SP,2013-08-29 12:36:00,
2013-08-29 08:41:00,67.5,44.6,30.00,SE,131,6.3,8.7,44,0.00,,,0.00,WUHU216WMR968SP,2013-08-29 12:41:00,
2013-08-29 08:46:00,67.3,44.6,30.00,East,89,7.6,8.7,44,0.00,,,0.00,WUHU216WMR968SP,2013-08-29 12:46:00,
2013-08-29 08:51:00,67.3,44.6,30.00,East,101,6.3,10.5,44,0.00,,,0.00,WUHU216WMR968SP,2013-08-29 12:51:00,
2013-08-29 08:56:00,67.3,44.6,30.00,NE,53,6.3,10.5,44,0.00,,,0.00,WUHU216WMR968SP,2013-08-29 12:56:00,
2013-08-29 09:01:00,67.1,44.6,30.00,SE,142,6.7,8.7,44,0.00,,,0.00,WUHU216WMR968SP,2013-08-29 13:01:00,
2013-08-29 09:06:00,67.1,44.6,30.00,ESE,109,7.2,10.1,44,0.00,,,0.00,WUHU216WMR968SP,2013-08-29 13:06:00,
2013-08-29 09:11:00,67.1,44.6,30.00,SE,130,6.3,10.1,44,0.00,,,0.00,WUHU216WMR968SP,2013-08-29 13:11:00,
2013-08-29 09:16:00,67.3,44.6,30.00,SE,139,5.8,10.1,44,0.00,,,0.00,WUHU216WMR968SP,2013-08-29 13:16:00,
2013-08-29 09:21:00,67.3,44.6,30.00,East,100,5.8,10.1,44,0.00,,,0.00,WUHU216WMR968SP,2013-08-29 13:21:00,
2013-08-29 09:26:00,67.6,44.6,30.00,SE,132,5.8,10.1,43,0.00,,,0.00,WUHU216WMR968SP,2013-08-29 13:26:00,
2013-08-29 09:31:00,67.8,44.6,30.00,SSE,149,5.8,10.1,43,0.00,,,0.00,WUHU216WMR968SP,2013-08-29 13:31:00,
2013-08-29 09:36:00,67.5,44.6,30.00,SE,143,6.3,12.3,43,0.00,,,0.00,WUHU216WMR968SP,2013-08-29 13:36:00,
2013-08-29 09:41:00,67.5,44.6,30.00,SE,139,7.6,12.3,43,0.00,,,0.00,WUHU216WMR968SP,2013-08-29 13:41:00,
2013-08-29 09:46:00,67.5,44.6,30.00,SE,128,7.2,12.3,43,0.00,,,0.00,WUHU216WMR968SP,2013-08-29 13:46:00,
2013-08-29 09:51:00,67.5,44.6,30.00,SE,141,7.6,10.1,43,0.00,,,0.00,WUHU216WMR968SP,2013-08-29 13:51:00,
2013-08-29 09:56:00,67.5,44.6,30.00,SE,137,6.7,10.1,43,0.00,,,0.00,WUHU216WMR968SP,2013-08-29 13:56:00,
2013-08-29 10:01:00,67.3,44.6,30.00,ESE,111,8.3,10.1,43,0.00,,,0.00,WUHU216WMR968SP,2013-08-29 14:01:00,
2013-08-29 10:06:00,67.1,44.6,30.00,SE,141,9.2,12.8,42,0.00,,,0.00,WUHU216WMR968SP,2013-08-29 14:06:00,
2013-08-29 10:11:00,67.3,44.6,30.00,ESE,121,8.3,12.8,42,0.00,,,0.00,WUHU216WMR968SP,2013-08-29 14:11:00,
2013-08-29 10:16:00,67.3,44.6,30.00,ESE,115,9.6,11.9,42,0.00,,,0.00,WUHU216WMR968SP,2013-08-29 14:16:00,
2013-08-29 10:21:00,67.5,44.6,30.00,SE,125,7.6,11.9,43,0.00,,,0.00,WUHU216WMR968SP,2013-08-29 14:21:00,
2013-08-29 10:26:00,67.3,42.8,30.00,ESE,116,9.2,12.3,41,0.00,,,0.00,WUHU216WMR968SP,2013-08-29 14:26:00,
2013-08-29 10:33:00,67.3,42.8,30.00,SE,140,8.1,12.3,40,0.00,,,0.00,WUHU216WMR968SP,2013-08-29 14:33:00,
2013-08-29 10:38:00,67.5,42.8,30.00,SE,124,5.4,12.8,40,0.00,,,0.00,WUHU216WMR968SP,2013-08-29 14:38:00,
2013-08-29 10:43:00,67.6,42.8,30.00,ESE,122,7.2,12.8,39,0.00,,,0.00,WUHU216WMR968SP,2013-08-29 14:43:00,
2013-08-29 10:48:00,67.5,42.8,30.00,SE,125,9.2,10.5,39,0.00,,,0.00,WUHU216WMR968SP,2013-08-29 14:48:00,
2013-08-29 10:53:00,67.5,42.8,30.00,East,92,8.3,10.5,39,0.00,,,0.00,WUHU216WMR968SP,2013-08-29 14:53:00,
2013-08-29 10:58:00,67.5,42.8,30.00,ESE,108,8.7,11.0,40,0.00,,,0.00,WUHU216WMR968SP,2013-08-29 14:58:00,
2013-08-29 11:03:00,67.1,42.8,30.00,SE,127,8.3,11.0,41,0.00,,,0.00,WUHU216WMR968SP,2013-08-29 15:03:00,
2013-08-29 11:08:00,67.3,42.8,30.00,East,99,8.1,11.4,40,0.00,,,0.00,WUHU216WMR968SP,2013-08-29 15:08:00,
2013-08-29 11:13:00,67.5,42.8,30.00,SE,124,7.6,11.4,40,0.00,,,0.00,WUHU216WMR968SP,2013-08-29 15:13:00,
2013-08-29 11:18:00,67.5,42.8,30.00,ESE,109,6.7,11.0,39,0.00,,,0.00,WUHU216WMR968SP,2013-08-29 15:18:00,
2013-08-29 11:23:00,67.5,42.8,30.00,SE,142,7.6,11.0,39,0.00,,,0.00,WUHU216WMR968SP,2013-08-29 15:23:00,
2013-08-29 11:28:00,67.5,42.8,30.00,SE,145,8.7,8.7,39,0.00,,,0.00,WUHU216WMR968SP,2013-08-29 15:28:00,
2013-08-29 11:33:00,67.5,42.8,30.00,SE,146,7.6,10.5,40,0.00,,,0.00,WUHU216WMR968SP,2013-08-29 15:33:00,
2013-08-29 11:38:00,67.5,42.8,30.00,SE,138,7.6,10.5,39,0.00,,,0.00,WUHU216WMR968SP,2013-08-29 15:38:00,
2013-08-29 11:43:00,67.6,42.8,30.03,SE,127,6.7,10.5,39,0.00,,,0.00,WUHU216WMR968SP,2013-08-29 15:43:00,
2013-08-29 11:48:00,67.5,41.0,30.03,South,186,6.3,10.1,38,0.00,,,0.00,WUHU216WMR968SP,2013-08-29 15:48:00,
2013-08-29 11:53:00,67.5,41.0,30.03,SSE,158,8.1,10.5,38,0.00,,,0.00,WUHU216WMR968SP,2013-08-29 15:53:00,
2013-08-29 11:58:00,67.5,41.0,30.03,SSE,163,7.2,10.5,38,0.00,,,0.00,WUHU216WMR968SP,2013-08-29 15:58:00,
2013-08-29 12:03:00,67.5,41.0,30.03,SE,145,7.2,10.5,38,0.00,,,0.00,WUHU216WMR968SP,2013-08-29 16:03:00,
2013-08-29 12:08:00,67.5,41.0,30.03,SSE,167,6.7,10.1,38,0.00,,,0.00,WUHU216WMR968SP,2013-08-29 16:08:00,
2013-08-29 12:13:00,67.6,41.0,30.03,SE,124,4.9,10.1,38,0.00,,,0.00,WUHU216WMR968SP,2013-08-29 16:13:00,
2013-08-29 12:18:00,67.5,41.0,30.03,SE,141,6.7,10.1,38,0.00,,,0.00,WUHU216WMR968SP,2013-08-29 16:18:00,
2013-08-29 12:23:00,67.6,41.0,30.03,SSE,155,3.6,9.6,38,0.00,,,0.00,WUHU216WMR968SP,2013-08-29 16:23:00,
2013-08-29 12:28:00,67.6,41.0,30.03,SE,141,4.5,9.6,38,0.00,,,0.00,WUHU216WMR968SP,2013-08-29 16:28:00,
2013-08-29 12:33:00,67.6,41.0,30.03,SE,139,6.3,9.6,37,0.00,,,0.00,WUHU216WMR968SP,2013-08-29 16:33:00,
2013-08-29 12:38:00,67.6,41.0,30.03,South,190,7.6,11.0,37,0.00,,,0.00,WUHU216WMR968SP,2013-08-29 16:38:00,
2013-08-29 12:43:00,68.0,41.0,30.00,South,183,4.9,11.0,36,0.00,,,0.00,WUHU216WMR968SP,2013-08-29 16:43:00,
2013-08-29 12:48:00,67.8,41.0,30.00,ESE,117,4.5,10.1,36,0.00,,,0.00,WUHU216WMR968SP,2013-08-29 16:48:00,
2013-08-29 12:53:00,67.8,41.0,30.00,SSE,157,6.3,10.1,37,0.00,,,0.00,WUHU216WMR968SP,2013-08-29 16:53:00,
2013-08-29 12:58:00,67.6,41.0,30.03,NNE,25,6.7,11.0,37,0.00,,,0.00,WUHU216WMR968SP,2013-08-29 16:58:00,
2013-08-29 13:03:00,67.3,41.0,30.03,ENE,78,8.1,11.0,37,0.00,,,0.00,WUHU216WMR968SP,2013-08-29 17:03:00,
2013-08-29 13:08:00,67.1,42.8,30.03,SE,130,6.3,10.1,39,0.00,,,0.00,WUHU216WMR968SP,2013-08-29 17:08:00,
2013-08-29 13:13:00,67.1,42.8,30.03,SSE,153,5.4,10.1,39,0.00,,,0.00,WUHU216WMR968SP,2013-08-29 17:13:00,
2013-08-29 13:18:00,67.1,42.8,30.03,SSE,163,5.4,8.3,39,0.00,,,0.00,WUHU216WMR968SP,2013-08-29 17:18:00,
2013-08-29 13:23:00,67.1,42.8,30.03,ESE,120,3.6,8.3,40,0.00,,,0.00,WUHU216WMR968SP,2013-08-29 17:23:00,
2013-08-29 13:28:00,66.9,41.0,30.03,SSE,147,5.8,8.7,39,0.00,,,0.00,WUHU216WMR968SP,2013-08-29 17:28:00,
2013-08-29 13:33:00,66.9,39.2,30.03,SE,141,6.3,8.7,38,0.00,,,0.00,WUHU216WMR968SP,2013-08-29 17:33:00,
2013-08-29 13:38:00,67.1,41.0,30.03,SSE,167,6.3,8.3,38,0.00,,,0.00,WUHU216WMR968SP,2013-08-29 17:38:00,
2013-08-29 13:43:00,66.9,39.2,30.00,East,81,6.7,9.6,38,0.00,,,0.00,WUHU216WMR968SP,2013-08-29 17:43:00,
2013-08-29 13:48:00,67.1,41.0,30.00,SE,128,6.3,9.6,38,0.00,,,0.00,WUHU216WMR968SP,2013-08-29 17:48:00,
2013-08-29 13:53:00,66.9,39.2,30.00,South,178,6.7,8.7,38,0.00,,,0.00,WUHU216WMR968SP,2013-08-29 17:53:00,
2013-08-29 13:58:00,66.9,39.2,30.00,ESE,123,5.4,8.3,38,0.00,,,0.00,WUHU216WMR968SP,2013-08-29 17:58:00,
2013-08-29 14:03:00,66.7,41.0,30.00,SE,128,3.6,8.7,40,0.00,,,0.00,WUHU216WMR968SP,2013-08-29 18:03:00,
2013-08-29 14:08:00,66.6,41.0,30.00,SE,132,4.9,9.6,39,0.00,,,0.00,WUHU216WMR968SP,2013-08-29 18:08:00,
2013-08-29 14:13:00,66.7,41.0,30.00,SE,140,4.9,9.6,39,0.00,,,0.00,WUHU216WMR968SP,2013-08-29 18:13:00,
2013-08-29 14:18:00,67.1,41.0,30.00,SE,140,3.1,9.6,38,0.00,,,0.00,WUHU216WMR968SP,2013-08-29 18:18:00,
2013-08-29 14:23:00,67.1,41.0,30.00,SSE,162,7.2,8.3,37,0.00,,,0.00,WUHU216WMR968SP,2013-08-29 18:23:00,
2013-08-29 14:28:00,67.1,41.0,30.00,ESE,110,5.8,8.3,37,0.00,,,0.00,WUHU216WMR968SP,2013-08-29 18:28:00,
2013-08-29 14:33:00,66.9,39.2,30.00,ESE,111,5.8,8.3,37,0.00,,,0.00,WUHU216WMR968SP,2013-08-29 18:33:00,
2013-08-29 14:38:00,66.7,39.2,30.00,SSE,160,6.7,8.7,37,0.00,,,0.00,WUHU216WMR968SP,2013-08-29 18:38:00,
2013-08-29 14:43:00,66.7,39.2,30.00,SSE,157,5.8,8.7,37,0.00,,,0.00,WUHU216WMR968SP,2013-08-29 18:43:00,
2013-08-29 14:48:00,66.7,39.2,30.00,ESE,112,6.3,8.7,36,0.00,,,0.00,WUHU216WMR968SP,2013-08-29 18:48:00,
2013-08-29 14:53:00,66.9,39.2,30.00,SSE,160,6.3,8.3,36,0.00,,,0.00,WUHU216WMR968SP,2013-08-29 18:53:00,
2013-08-29 14:58:00,67.5,39.2,30.00,SSE,153,4.9,10.5,35,0.00,,,0.00,WUHU216WMR968SP,2013-08-29 18:58:00,
2013-08-29 15:03:00,68.0,39.2,30.00,ESE,103,6.7,10.5,34,0.00,,,0.00,WUHU216WMR968SP,2013-08-29 19:03:00,
2013-08-29 15:08:00,67.5,39.2,30.00,SE,124,6.3,8.7,34,0.00,,,0.00,WUHU216WMR968SP,2013-08-29 19:08:00,
2013-08-29 15:13:00,67.5,39.2,30.00,ESE,122,7.2,8.7,35,0.00,,,0.00,WUHU216WMR968SP,2013-08-29 19:13:00,
2013-08-29 15:18:00,67.5,39.2,30.00,East,99,5.4,8.7,35,0.00,,,0.00,WUHU216WMR968SP,2013-08-29 19:18:00,
2013-08-29 15:23:00,67.6,39.2,30.00,SE,134,6.3,8.7,35,0.00,,,0.00,WUHU216WMR968SP,2013-08-29 19:23:00,
2013-08-29 15:28:00,67.8,39.2,30.00,SE,135,5.8,8.7,34,0.00,,,0.00,WUHU216WMR968SP,2013-08-29 19:28:00,
2013-08-29 15:33:00,68.2,37.4,30.00,SE,131,5.8,8.3,33,0.00,,,0.00,WUHU216WMR968SP,2013-08-29 19:33:00,
2013-08-29 15:38:00,68.0,37.4,30.00,SSE,149,6.3,8.3,33,0.00,,,0.00,WUHU216WMR968SP,2013-08-29 19:38:00,
2013-08-29 15:43:00,67.8,39.2,30.00,ESE,116,5.4,8.3,34,0.00,,,0.00,WUHU216WMR968SP,2013-08-29 19:43:00,
2013-08-29 15:48:00,67.6,37.4,30.00,ESE,103,7.2,9.2,33,0.00,,,0.00,WUHU216WMR968SP,2013-08-29 19:48:00,
2013-08-29 15:53:00,67.6,37.4,30.00,SE,137,4.5,9.2,33,0.00,,,0.00,WUHU216WMR968SP,2013-08-29 19:53:00,
2013-08-29 15:58:00,67.6,37.4,30.00,SSE,153,5.8,8.7,33,0.00,,,0.00,WUHU216WMR968SP,2013-08-29 19:58:00,
2013-08-29 16:03:00,67.6,37.4,30.00,SSE,165,6.3,8.7,33,0.00,,,0.00,WUHU216WMR968SP,2013-08-29 20:03:00,
2013-08-29 16:08:00,67.6,37.4,30.00,ESE,109,5.4,8.7,33,0.00,,,0.00,WUHU216WMR968SP,2013-08-29 20:08:00,
2013-08-29 16:13:00,67.5,37.4,30.00,SE,132,4.5,8.7,33,0.00,,,0.00,WUHU216WMR968SP,2013-08-29 20:13:00,
2013-08-29 16:18:00,67.5,37.4,30.00,South,191,3.6,8.7,33,0.00,,,0.00,WUHU216WMR968SP,2013-08-29 20:18:00,
2013-08-29 16:23:00,67.5,37.4,30.00,SSE,160,4.9,8.1,33,0.00,,,0.00,WUHU216WMR968SP,2013-08-29 20:23:00,
2013-08-29 16:28:00,67.5,37.4,30.00,SE,144,5.8,8.1,33,0.00,,,0.00,WUHU216WMR968SP,2013-08-29 20:28:00,
2013-08-29 16:33:00,67.8,37.4,30.00,South,169,3.1,8.1,33,0.00,,,0.00,WUHU216WMR968SP,2013-08-29 20:33:00,
2013-08-29 16:38:00,68.0,37.4,30.00,South,188,3.1,6.3,32,0.00,,,0.00,WUHU216WMR968SP,2013-08-29 20:38:00,
2013-08-29 16:43:00,67.8,37.4,30.00,SE,135,3.1,5.8,33,0.00,,,0.00,WUHU216WMR968SP,2013-08-29 20:43:00,
2013-08-29 16:48:00,67.5,37.4,30.00,SSE,149,4.5,7.6,33,0.00,,,0.00,WUHU216WMR968SP,2013-08-29 20:48:00,
2013-08-29 16:53:00,67.5,39.2,30.00,South,184,2.2,7.6,34,0.00,,,0.00,WUHU216WMR968SP,2013-08-29 20:53:00,
2013-08-29 16:58:00,67.3,39.2,30.00,SSE,162,4.0,5.4,34,0.00,,,0.00,WUHU216WMR968SP,2013-08-29 20:58:00,
2013-08-29 17:03:00,67.1,39.2,30.00,South,169,3.6,5.4,34,0.00,,,0.00,WUHU216WMR968SP,2013-08-29 21:03:00,
2013-08-29 17:08:00,66.9,37.4,30.00,South,184,4.0,5.8,34,0.00,,,0.00,WUHU216WMR968SP,2013-08-29 21:08:00,
2013-08-29 17:13:00,66.9,37.4,30.03,SE,141,3.6,6.3,35,0.00,,,0.00,WUHU216WMR968SP,2013-08-29 21:13:00,
2013-08-29 17:18:00,67.3,39.2,30.03,SSW,195,4.0,6.3,34,0.00,,,0.00,WUHU216WMR968SP,2013-08-29 21:18:00,
2013-08-29 17:23:00,67.5,39.2,30.03,SSW,192,3.6,6.3,34,0.00,,,0.00,WUHU216WMR968SP,2013-08-29 21:23:00,
2013-08-29 17:28:00,67.5,39.2,30.00,SE,128,2.7,5.4,34,0.00,,,0.00,WUHU216WMR968SP,2013-08-29 21:28:00,
2013-08-29 17:33:00,67.5,39.2,30.00,SE,127,3.1,5.4,34,0.00,,,0.00,WUHU216WMR968SP,2013-08-29 21:33:00,
2013-08-29 17:38:00,67.5,39.2,30.00,South,179,3.1,5.8,34,0.00,,,0.00,WUHU216WMR968SP,2013-08-29 21:38:00,
2013-08-29 17:43:00,67.3,39.2,30.00,SE,143,2.2,5.8,34,0.00,,,0.00,WUHU216WMR968SP,2013-08-29 21:43:00,
2013-08-29 17:48:00,67.3,39.2,30.00,SSE,147,0.0,4.9,34,0.00,,,0.00,WUHU216WMR968SP,2013-08-29 21:48:00,
2013-08-29 17:53:00,67.1,39.2,30.00,SSE,166,0.0,4.0,34,0.00,,,0.00,WUHU216WMR968SP,2013-08-29 21:53:00,
2013-08-29 17:58:00,66.9,37.4,30.03,SSE,158,3.1,4.0,34,0.00,,,0.00,WUHU216WMR968SP,2013-08-29 21:58:00,
2013-08-29 18:03:00,66.9,37.4,30.03,SSW,194,3.1,4.0,34,0.00,,,0.00,WUHU216WMR968SP,2013-08-29 22:03:00,
2013-08-29 18:08:00,66.9,37.4,30.03,South,176,2.7,4.0,35,0.00,,,0.00,WUHU216WMR968SP,2013-08-29 22:08:00,
2013-08-29 18:13:00,66.9,37.4,30.00,South,189,0.0,5.4,35,0.00,,,0.00,WUHU216WMR968SP,2013-08-29 22:13:00,
2013-08-29 18:18:00,66.9,37.4,30.00,SE,141,2.2,5.4,35,0.00,,,0.00,WUHU216WMR968SP,2013-08-29 22:18:00,
2013-08-29 18:23:00,66.9,37.4,30.00,South,178,0.0,5.4,35,0.00,,,0.00,WUHU216WMR968SP,2013-08-29 22:23:00,
2013-08-29 18:28:00,66.9,37.4,30.00,SSE,165,0.0,4.9,35,0.00,,,0.00,WUHU216WMR968SP,2013-08-29 22:28:00,
2013-08-29 18:33:00,66.9,37.4,30.00,South,172,0.0,4.0,35,0.00,,,0.00,WUHU216WMR968SP,2013-08-29 22:33:00,
2013-08-29 18:38:00,66.9,37.4,30.00,South,170,0.0,3.6,35,0.00,,,0.00,WUHU216WMR968SP,2013-08-29 22:38:00,
2013-08-29 18:43:00,66.7,39.2,30.00,South,170,0.0,0.0,36,0.00,,,0.00,WUHU216WMR968SP,2013-08-29 22:43:00,
2013-08-29 18:48:00,66.6,39.2,30.00,South,183,0.0,0.0,36,0.00,,,0.00,WUHU216WMR968SP,2013-08-29 22:48:00,
2013-08-29 18:53:00,66.4,39.2,30.00,South,184,0.0,0.0,36,0.00,,,0.00,WUHU216WMR968SP,2013-08-29 22:53:00,
2013-08-29 18:58:00,66.2,39.2,30.00,South,183,0.0,3.1,37,0.00,,,0.00,WUHU216WMR968SP,2013-08-29 22:58:00,
2013-08-29 19:03:00,66.2,39.2,30.00,SSW,202,0.0,4.0,37,0.00,,,0.00,WUHU216WMR968SP,2013-08-29 23:03:00,
2013-08-29 19:08:00,66.0,39.2,30.00,South,187,3.1,4.0,38,0.00,,,0.00,WUHU216WMR968SP,2013-08-29 23:08:00,
2013-08-29 19:13:00,66.0,39.2,30.00,South,169,0.0,4.0,38,0.00,,,0.00,WUHU216WMR968SP,2013-08-29 23:13:00,
2013-08-29 19:18:00,65.8,39.2,30.00,South,183,3.1,4.0,38,0.00,,,0.00,WUHU216WMR968SP,2013-08-29 23:18:00,
2013-08-29 19:23:00,65.7,39.2,30.00,South,173,0.0,4.0,38,0.00,,,0.00,WUHU216WMR968SP,2013-08-29 23:23:00,
2013-08-29 19:28:00,65.5,39.2,30.00,South,184,0.0,4.0,38,0.00,,,0.00,WUHU216WMR968SP,2013-08-29 23:28:00,
2013-08-29 19:33:00,65.5,41.0,30.00,South,172,0.0,2.7,39,0.00,,,0.00,WUHU216WMR968SP,2013-08-29 23:33:00,
2013-08-29 19:38:00,65.5,41.0,30.00,South,182,2.2,4.0,39,0.00,,,0.00,WUHU216WMR968SP,2013-08-29 23:38:00,
2013-08-29 19:43:00,65.5,41.0,30.00,SE,142,0.0,4.0,39,0.00,,,0.00,WUHU216WMR968SP,2013-08-29 23:43:00,
2013-08-29 19:48:00,65.5,41.0,30.00,SE,142,0.0,3.6,39,0.00,,,0.00,WUHU216WMR968SP,2013-08-29 23:48:00,
2013-08-29 19:53:00,65.5,41.0,30.00,SSE,167,0.0,3.1,39,0.00,,,0.00,WUHU216WMR968SP,2013-08-29 23:53:00,
2013-08-29 19:58:00,65.5,41.0,30.00,South,184,0.0,3.6,40,0.00,,,0.00,WUHU216WMR968SP,2013-08-29 23:58:00,
2013-08-29 20:03:00,65.5,41.0,30.00,South,184,0.0,3.6,40,0.00,,,0.00,WUHU216WMR968SP,2013-08-30 00:03:00,
2013-08-29 20:08:00,65.5,41.0,30.00,South,184,0.0,0.0,40,0.00,,,0.00,WUHU216WMR968SP,2013-08-30 00:08:00,
2013-08-29 20:13:00,65.5,41.0,30.00,South,185,0.0,4.0,41,0.00,,,0.00,WUHU216WMR968SP,2013-08-30 00:13:00,
2013-08-29 20:18:00,65.3,41.0,30.00,South,185,0.0,4.0,40,0.00,,,0.00,WUHU216WMR968SP,2013-08-30 00:18:00,
2013-08-29 20:23:00,65.1,39.2,30.00,South,185,0.0,0.0,40,0.00,,,0.00,WUHU216WMR968SP,2013-08-30 00:23:00,
2013-08-29 20:28:00,64.9,41.0,30.00,South,185,0.0,2.2,41,0.00,,,0.00,WUHU216WMR968SP,2013-08-30 00:28:00,
2013-08-29 20:33:00,64.9,41.0,30.00,South,185,0.0,2.2,41,0.00,,,0.00,WUHU216WMR968SP,2013-08-30 00:33:00,
2013-08-29 20:38:00,64.9,41.0,30.00,South,185,0.0,0.0,41,0.00,,,0.00,WUHU216WMR968SP,2013-08-30 00:38:00,
2013-08-29 20:43:00,64.9,41.0,30.00,South,185,0.0,0.0,41,0.00,,,0.00,WUHU216WMR968SP,2013-08-30 00:43:00,
2013-08-29 20:48:00,64.9,41.0,30.00,South,185,0.0,0.0,41,0.00,,,0.00,WUHU216WMR968SP,2013-08-30 00:48:00,
2013-08-29 20:53:00,65.1,41.0,30.00,South,185,0.0,0.0,42,0.00,,,0.00,WUHU216WMR968SP,2013-08-30 00:53:00,
2013-08-29 20:58:00,65.1,41.0,30.00,South,185,0.0,0.0,42,0.00,,,0.00,WUHU216WMR968SP,2013-08-30 00:58:00,
2013-08-29 21:03:00,65.1,41.0,30.00,South,185,0.0,0.0,42,0.00,,,0.00,WUHU216WMR968SP,2013-08-30 01:03:00,
2013-08-29 21:08:00,65.3,42.8,30.00,South,185,0.0,0.0,42,0.00,,,0.00,WUHU216WMR968SP,2013-08-30 01:08:00,
2013-08-29 21:13:00,65.3,42.8,30.00,South,185,0.0,0.0,42,0.00,,,0.00,WUHU216WMR968SP,2013-08-30 01:13:00,
2013-08-29 21:18:00,65.5,42.8,30.00,South,185,0.0,0.0,43,0.00,,,0.00,WUHU216WMR968SP,2013-08-30 01:18:00,
2013-08-29 21:23:00,65.5,42.8,30.00,South,185,0.0,0.0,43,0.00,,,0.00,WUHU216WMR968SP,2013-08-30 01:23:00,
2013-08-29 21:28:00,65.5,42.8,30.00,South,185,0.0,0.0,43,0.00,,,0.00,WUHU216WMR968SP,2013-08-30 01:28:00,
2013-08-29 21:33:00,65.7,42.8,30.00,North,357,0.0,2.2,43,0.00,,,0.00,WUHU216WMR968SP,2013-08-30 01:33:00,
2013-08-29 21:38:00,65.7,42.8,30.00,North,353,0.0,2.2,43,0.00,,,0.00,WUHU216WMR968SP,2013-08-30 01:38:00,
2013-08-29 21:43:00,65.7,42.8,30.00,NNW,343,0.0,3.1,43,0.00,,,0.00,WUHU216WMR968SP,2013-08-30 01:43:00,
2013-08-29 21:48:00,65.7,42.8,30.00,NNW,344,0.0,3.6,43,0.00,,,0.00,WUHU216WMR968SP,2013-08-30 01:48:00,
2013-08-29 21:53:00,65.7,42.8,30.00,NNW,334,2.2,4.0,43,0.00,,,0.00,WUHU216WMR968SP,2013-08-30 01:53:00,
2013-08-29 21:58:00,65.7,42.8,30.00,WNW,303,2.2,4.9,44,0.00,,,0.00,WUHU216WMR968SP,2013-08-30 01:58:00,
2013-08-29 22:03:00,65.7,42.8,30.00,NW,313,2.2,4.9,44,0.00,,,0.00,WUHU216WMR968SP,2013-08-30 02:03:00,
2013-08-29 22:08:00,65.7,42.8,30.00,NNW,339,0.0,4.0,44,0.00,,,0.00,WUHU216WMR968SP,2013-08-30 02:08:00,
2013-08-29 22:13:00,65.7,42.8,30.00,NNW,344,2.2,3.6,44,0.00,,,0.00,WUHU216WMR968SP,2013-08-30 02:13:00,
2013-08-29 22:18:00,65.5,42.8,30.00,North,1,0.0,3.6,44,0.00,,,0.00,WUHU216WMR968SP,2013-08-30 02:18:00,
2013-08-29 22:23:00,65.5,42.8,30.00,NW,308,0.0,4.0,44,0.00,,,0.00,WUHU216WMR968SP,2013-08-30 02:23:00,
2013-08-29 22:28:00,65.5,42.8,30.00,NNE,17,0.0,4.0,44,0.00,,,0.00,WUHU216WMR968SP,2013-08-30 02:28:00,
2013-08-29 22:33:00,65.5,42.8,30.00,NNW,330,0.0,3.6,44,0.00,,,0.00,WUHU216WMR968SP,2013-08-30 02:33:00,
2013-08-29 22:37:00,65.7,42.8,30.00,NW,309,0.0,3.6,44,0.00,,,0.00,WUHU216WMR968SP,2013-08-30 02:37:00,
2013-08-29 22:38:00,65.5,42.8,30.00,NW,317,0.0,3.6,44,0.00,,,0.00,WUHU216WMR968SP,2013-08-30 02:38:00,
2013-08-29 22:39:00,65.5,42.8,30.00,NNW,338,0.0,3.6,44,0.00,,,0.00,WUHU216WMR968SP,2013-08-30 02:39:00,
2013-08-29 22:40:00,65.5,42.8,30.00,NNW,328,2.7,3.6,44,0.00,,,0.00,WUHU216WMR968SP,2013-08-30 02:40:00,
2013-08-29 22:41:00,65.5,42.8,30.00,NW,316,0.0,3.6,44,0.00,,,0.00,WUHU216WMR968SP,2013-08-30 02:41:00,
2013-08-29 22:42:00,65.5,42.8,30.00,NNW,337,0.0,3.6,44,0.00,,,0.00,WUHU216WMR968SP,2013-08-30 02:42:00,
2013-08-29 22:43:00,65.5,42.8,30.00,NW,325,0.0,3.6,44,0.00,,,0.00,WUHU216WMR968SP,2013-08-30 02:43:00,
2013-08-29 22:44:00,65.5,42.8,30.00,NNW,328,0.0,3.6,44,0.00,,,0.00,WUHU216WMR968SP,2013-08-30 02:44:00,
2013-08-29 22:45:00,65.5,42.8,30.00,NW,317,0.0,3.6,44,0.00,,,0.00,WUHU216WMR968SP,2013-08-30 02:45:00,
2013-08-29 22:46:00,65.5,42.8,30.00,NW,322,0.0,3.6,44,0.00,,,0.00,WUHU216WMR968SP,2013-08-30 02:46:00,
2013-08-29 22:47:00,65.5,42.8,30.00,NW,315,2.2,3.6,44,0.00,,,0.00,WUHU216WMR968SP,2013-08-30 02:47:00,
2013-08-29 22:48:00,65.5,42.8,30.00,NW,326,0.0,3.6,44,0.00,,,0.00,WUHU216WMR968SP,2013-08-30 02:48:00,
2013-08-29 22:49:00,65.5,42.8,30.00,NNW,342,0.0,3.6,44,0.00,,,0.00,WUHU216WMR968SP,2013-08-30 02:49:00,
2013-08-29 22:50:00,65.5,42.8,30.00,North,7,0.0,3.6,44,0.00,,,0.00,WUHU216WMR968SP,2013-08-30 02:50:00,
2013-08-29 22:51:00,65.5,42.8,30.00,NNW,340,0.0,3.6,44,0.00,,,0.00,WUHU216WMR968SP,2013-08-30 02:51:00,
2013-08-29 22:52:00,65.5,42.8,30.00,West,269,0.0,3.6,44,0.00,,,0.00,WUHU216WMR968SP,2013-08-30 02:52:00,
2013-08-29 22:53:00,65.5,42.8,30.00,NNW,332,2.2,3.6,44,0.00,,,0.00,WUHU216WMR968SP,2013-08-30 02:53:00,
2013-08-29 22:54:00,65.5,42.8,30.00,NNW,337,2.2,4.0,44,0.00,,,0.00,WUHU216WMR968SP,2013-08-30 02:54:00,
2013-08-29 22:55:00,65.5,42.8,29.97,NNW,330,2.2,4.0,44,0.00,,,0.00,WUHU216WMR968SP,2013-08-30 02:55:00,
2013-08-29 22:56:00,65.5,42.8,29.97,NNW,330,0.0,4.0,44,0.00,,,0.00,WUHU216WMR968SP,2013-08-30 02:56:00,
2013-08-29 22:57:00,65.5,42.8,29.97,NNW,327,0.0,4.0,44,0.00,,,0.00,WUHU216WMR968SP,2013-08-30 02:57:00,
2013-08-29 22:58:00,65.5,42.8,29.97,NNW,327,0.0,4.0,44,0.00,,,0.00,WUHU216WMR968SP,2013-08-30 02:58:00,
2013-08-29 22:59:00,65.5,42.8,29.97,NNW,327,0.0,4.0,44,0.00,,,0.00,WUHU216WMR968SP,2013-08-30 02:59:00,
2013-08-29 23:00:00,65.5,42.8,29.97,NW,324,0.0,4.0,44,0.00,,,0.00,WUHU216WMR968SP,2013-08-30 03:00:00,
2013-08-29 23:01:00,65.5,42.8,29.97,NW,324,0.0,4.0,44,0.00,,,0.00,WUHU216WMR968SP,2013-08-30 03:01:00,
2013-08-29 23:02:00,65.5,42.8,29.97,NW,315,0.0,4.0,44,0.00,,,0.00,WUHU216WMR968SP,2013-08-30 03:02:00,